Location: Hancock Field Station
(44.9202°N, 120.4259°W)
Time: 18:48:22
(UTC-07:00)

Nadezhda 4 Rocket - Visible Passes

Search period start: 18 April 2014 00:00
Search period end: 28 April 2014 00:00
Orbit: 951 x 992 km, 82.9° (Epoch: 17 April)

Date Brightness Start Highest point End Pass type
(mag) Time Alt. Az. Time Alt. Az. Time Alt. Az.
18 Apr 6.2 01:50:30 10° NNE 01:54:42 18° ENE 01:58:32 11° ESE visible
18 Apr 3.9 03:34:30 10° N 03:40:46 78° W 03:43:05 41° S visible
18 Apr 5.7 05:22:49 10° NW 05:24:55 12° WNW 05:27:01 10° W visible
19 Apr 5.5 02:13:55 10° N 02:19:22 30° ENE 02:22:12 21° ESE visible
19 Apr 4.3 03:58:56 10° NNW 04:04:50 45° W 04:06:45 35° SW visible
20 Apr 4.6 02:37:45 10° N 02:43:50 51° ENE 02:45:55 37° SE visible
20 Apr 5.0 04:23:43 10° NNW 04:28:45 26° W 04:30:28 23° WSW visible
21 Apr 6.3 01:18:26 10° NNE 01:21:50 15° ENE 01:25:07 10° E visible
21 Apr 3.9 03:01:51 10° N 03:08:08 86° E 03:09:41 54° SSE visible
21 Apr 5.6 04:49:11 10° NW 04:52:30 15° WNW 04:54:14 14° W visible
22 Apr 5.7 01:41:32 10° NNE 01:46:34 25° ENE 01:48:54 20° E visible
22 Apr 4.1 03:26:12 10° NNW 03:32:16 56° W 03:33:28 48° SW visible
23 Apr 4.9 02:05:14 10° N 02:11:07 42° ENE 02:12:43 35° ESE visible
23 Apr 4.7 03:50:49 10° NNW 03:56:14 32° W 03:57:16 31° WSW visible
24 Apr 6.4 00:46:43 10° NE 00:48:56 12° ENE 00:51:08 10° E visible
24 Apr 4.1 02:29:14 10° N 02:35:29 71° E 02:36:33 59° SE visible
24 Apr 5.4 04:15:56 10° NW 04:20:03 19° W 04:21:07 18° W visible
25 Apr 5.8 01:09:14 10° NNE 01:13:45 20° ENE 01:15:51 17° E visible
25 Apr 3.9 02:53:29 10° NNW 02:59:40 69° W 03:00:25 63° SW visible
26 Apr 5.1 01:32:45 10° N 01:38:21 34° ENE 01:39:44 31° E visible
26 Apr 4.4 03:17:59 10° NNW 03:23:42 40° W 03:24:18 39° WSW visible
27 Apr 4.3 01:56:39 10° N 02:02:47 58° ENE 02:03:38 53° ESE visible
27 Apr 5.2 03:42:52 10° NNW 03:47:34 23° W 03:48:12 23° W visible
